2020-014E (45253 NORAD) Tracking and Keplerian Element Data

This shows tracking and keplerian element data for the satellite.

Feedback or suggestion? Click here.




ElementValue
Catalog45253
Name2020-014E
Epoch Orbit292
Epoch Day70.18994008
Epoch Year2020
RAAN318.6672
Inclination35.0079
Eccentricity0.0004502
Argument of Perigee117.5238
Mean Anonmoly242.5936
Mean Motion15.28838556
Decay Rate1.389E-05
L11 45253U 20014E 20070.18994008 .00001389 00000-0 49702-4 0 9991
L22 45253 35.0079 318.6672 0004502 117.5238 242.5936 15.28838556 2921

Live tracking and technical data element details for 2020-014E (NORAD 45253). 2020-014E can be tracked NOW for your location showing map with azimuth and elevation plus other details from your city location.

Track the satellite on the map from your city or location and see movement details for azimuth, elevation, latitude, longitude, range, height, and movement on the map or in text.







IsCatalogInMostPopularTable: catalog: 45253, numindb: 13
Update: records affected: 1



GetName: 45253 2020-014E

Hit Count: updated at: Mon, 06 Apr 2020 12:07:13 GMT